Regional Weather Roundup
Issued by NWS

Home | Current Version | Previous Version | Graphics & Text | Print | Product List | Glossary On
Versions: 1 2 3 4 5 6 7 8 9 10 11 12 13 14 15 16 17 18 19 20 21 22 23 24 25 26 27 28 29 30 31 32 33 34 35 36 37 38 39 40 41 42 43 44 45 46 47 48 49 50
000
ASUS43 KLMK 272310
RWRKY
KENTUCKY REGIONAL WEATHER ROUNDUP
NATIONAL WEATHER SERVICE LOUISVILLE KY
600 PM EST SAT DEC 27 2014

NOTE "FAIR" INDICATES FEW OR NO CLOUDS BELOW 12,000 FEET
WITH NO SIGNIFICANT WEATHER AND/OR OBSTRUCTIONS TO VISIBILITY.

KYZ001>023-026-027-061>063-070>075-280000-
WESTERN AND SOUTH CENTRAL KENTUCKY

CITY           SKY/WX    TMP DP  RH WIND       PRES   REMARKS
PADUCAH        FOG       50  49  96 E3        30.08F VSB 3/4
HENDERSON      CLOUDY    48  45  87 SW6       30.11R
OWENSBORO      CLOUDY    48  48 100 S6        30.10F
HOPKINSVILLE   CLOUDY    48  48 100 SE6       30.11S FOG
BOWLING GREEN  LGT RAIN  50  46  86 SW9       30.16R FOG
GLASGOW        CLOUDY    50  44  80 SW3       30.14R
$$

KYZ024-025-028>034-038-045-046-053-280000-
NORTH CENTRAL KENTUCKY

CITY           SKY/WX    TMP DP  RH WIND       PRES   REMARKS
LOUISVILLE/SDF DRIZZLE   49  47  93 S3        30.13R FOG
LOUISVILLE/LOU LGT RAIN  49  47  93 S5        30.13S FOG
FORT KNOX      LGT RAIN  47  46  96 S6        30.11F
$$

KYZ035>037-039>044-047>052-055>060-089>105-280000-
NORTHEAST KENTUCKY

CITY           SKY/WX    TMP DP  RH WIND       PRES   REMARKS
LEXINGTON      CLOUDY    49  43  80 W7        30.13S
COVINGTON      RAIN      48  44  86 S5        30.11S FOG
FRANKFORT      LGT RAIN  48  45  89 SW12      30.13R FOG
$$

KYZ054-064>069-076>088-106>120-280000-
SOUTHEAST KENTUCKY

CITY           SKY/WX    TMP DP  RH WIND       PRES   REMARKS
JACKSON        CLOUDY    57  26  30 CALM      30.12F
LONDON         LGT RAIN  57  32  38 S8        30.14R
SOMERSET       CLOUDY    54  36  50 S8        30.15R
MIDDLESBORO    CLOUDY    53  33  45 S5        30.17S
MONTICELLO     CLOUDY    55  40  57 S13G20    30.17R
$$




USA.gov is the U.S. government's official web portal to all federal, state and local government web resources and services.